{"data":{"norad_id":27464,"intl_designator":"2002-036A","name":"COSMOS 2390","alt_names":[],"object_type":"PAYLOAD","status":"ACTIVE","operator":null,"country":"CIS","launch_date":"2002-07-08","launch_site_code":"PLMSC","launch_vehicle":null,"mission":null,"orbit_class":"UNKNOWN","rcs_meters":0.8841,"size_class":null,"mass_kg":null,"dimensions":null,"purposes":[],"wikipedia_slug":null,"has_3d_model":false,"image_url":null,"decayed_at":null,"tle_current":{"epoch":"2026-09-19T23:25:48.125280Z","epoch_age_seconds":56447,"freshness":"FRESH","line1":"1 27464U 02036A   26262.97625145 -.00000008  00000+0 -12725-3 0  9990","line2":"2 27464  82.4803 285.6853 0026478  52.8814 307.4681 12.44624880 99468","mean_motion":12.4462488,"eccentricity":0.0026478,"inclination_deg":82.4803,"raan_deg":285.6853,"arg_perigee_deg":52.8814,"mean_anomaly_deg":307.4681,"bstar":-0.00012725,"rev_number":9946,"period_min":115.69751040169,"perigee_km":1466.2330428334,"apogee_km":1507.8839721629,"semimajor_km":7865.1955074981,"source":"CELESTRAK","updated_at":"2026-09-20T09:00:13.582544Z"}}}